Weather History for Lumberton, NC

Change the Weather History Date:

Monday, September 8, 2014

  Actual Average Record
Temperature  
Mean Temperature 74 °F 75 °F  
Max Temperature 77 °F 86 °F 97 °F (2010)
Min Temperature 71 °F 65 °F 61 °F (2001)
Degree Days  
Heating Degree Days 0 0  
Month to date heating degree days 0 0  
Since 1 July heating degree days 0 0  
Cooling Degree Days 9 10  
Month to date cooling degree days 134 87  
Year to date cooling degree days 1791 1659  
Growing Degree Days 24 (Base 50)    
Moisture  
Dew Point 73 °F    
Average Humidity 97    
Maximum Humidity 100    
Minimum Humidity 93    
Precipitation  
Precipitation 0.55 in 0.17 in 0.86 in (2004)
Month to date precipitation 1.35 1.39  
Year to date precipitation 33.51 31.78  
Sea Level Pressure  
Sea Level Pressure 30.02 in    
Wind  
Wind Speed 5 mph (ENE)    
Max Wind Speed 13 mph    
Max Gust Speed 16 mph    
Visibility 7 miles    
Events Rain    
T = Trace of Precipitation, MM = Missing Value Source: NWS Daily Summary

Daily Weather History Graph

Daily Weather History Graph

Search for Another Location

Airport:

Trip Planner

Search our weather history database for the weather conditions in past years. The results will help you decide how hot, cold, wet, or windy it might be!

Date:

Astronomy

Sep. 08, 2014 Rise Set
Actual Time 6:54 AM EDT 7:32 PM EDT
Civil Twilight 6:28 AM EDT 7:58 PM EDT
Nautical Twilight 5:58 AM EDT 8:28 PM EDT
Astronomical Twilight 5:28 AM EDT 8:58 PM EDT
Moon 7:13 PM EDT (9/8) 6:17 AM EDT (9/8)
Length of Visible Light 13h 29m
Length of Day
12h 38m
Full, 100% of the Moon is Illuminated
Sep 8
Full
Sep 8
Full
Sep 15
Last Quarter
Sep 24
New
Oct 1
First Quarter

Hourly Weather History & Observations

Time (EDT) Temp. Dew Point Humidity Pressure Visibility Wind Dir Wind Speed Gust Speed Precip Events Conditions
12:15 AM 73.9 °F 73.0 °F 97% 30.05 in 10.0 mi NE 6.9 mph - 0.01 in   Overcast
12:54 AM 73.9 °F 73.0 °F 97% 30.04 in 10.0 mi NE 8.1 mph - 0.01 in   Overcast
1:50 AM 73.4 °F 71.6 °F 94% 30.04 in 3.0 mi ENE 5.8 mph - 0.02 in Rain Light Rain
1:54 AM 73.0 °F 72.0 °F 96% 30.04 in 5.0 mi ENE 4.6 mph - 0.03 in Rain Light Rain
2:23 AM 73.0 °F 72.0 °F 96% 30.03 in 7.0 mi Calm Calm - 0.02 in Rain Light Rain
2:37 AM 73.0 °F 72.0 °F 96% 30.03 in 10.0 mi NE 4.6 mph - 0.02 in Rain Light Rain
2:54 AM 73.0 °F 72.0 °F 96% 30.03 in 10.0 mi NE 3.5 mph - 0.03 in Rain Light Rain
3:07 AM 73.0 °F 72.0 °F 96% 30.03 in 10.0 mi NE 5.8 mph - 0.00 in   Overcast
3:21 AM 73.0 °F 72.0 °F 96% 30.03 in 10.0 mi ENE 5.8 mph - 0.00 in   Overcast
3:54 AM 73.0 °F 72.0 °F 96% 30.02 in 10.0 mi ENE 5.8 mph - 0.01 in   Overcast
4:54 AM 73.0 °F 72.0 °F 96% 30.01 in 10.0 mi NE 6.9 mph - N/A   Overcast
5:19 AM 73.0 °F 72.0 °F 96% 30.02 in 4.0 mi NNE 4.6 mph - 0.05 in Rain Light Rain
5:29 AM 73.0 °F 72.0 °F 96% 30.02 in 10.0 mi Variable 3.5 mph - 0.05 in   Overcast
5:54 AM 73.0 °F 72.0 °F 96% 30.01 in 10.0 mi NNE 5.8 mph - 0.05 in Rain Light Rain
6:10 AM 73.0 °F 72.0 °F 96% 30.02 in 10.0 mi NNE 4.6 mph - 0.01 in Rain Light Rain
6:54 AM 73.0 °F 71.1 °F 93% 30.02 in 10.0 mi North 4.6 mph - 0.01 in   Overcast
7:54 AM 73.0 °F 72.0 °F 96% 30.03 in 10.0 mi NE 4.6 mph - 0.02 in   Overcast
8:04 AM 73.0 °F 72.0 °F 96% 30.03 in 10.0 mi NE 3.5 mph - N/A   Overcast
8:06 AM 73.0 °F 72.0 °F 96% 30.03 in 10.0 mi ENE 3.5 mph - N/A   Overcast
8:25 AM 73.9 °F 72.0 °F 93% 30.03 in 10.0 mi ENE 4.6 mph - N/A   Mostly Cloudy
8:54 AM 73.9 °F 73.0 °F 97% 30.04 in 10.0 mi East 4.6 mph - N/A   Mostly Cloudy
9:02 AM 73.9 °F 73.0 °F 97% 30.04 in 10.0 mi East 5.8 mph - N/A   Overcast
9:54 AM 75.0 °F 73.0 °F 94% 30.05 in 4.0 mi ESE 8.1 mph - 0.01 in Rain Light Rain
10:03 AM 75.0 °F 73.0 °F 94% 30.06 in 2.0 mi ESE 8.1 mph - 0.01 in Rain Light Rain
10:14 AM 75.0 °F 73.0 °F 94% 30.06 in 4.0 mi ESE 8.1 mph - 0.01 in Rain Light Rain
10:50 AM 75.2 °F 73.4 °F 94% 30.06 in 5.0 mi ESE 6.9 mph - 0.01 in Rain Light Rain
10:54 AM 75.0 °F 73.9 °F 96% 30.06 in 4.0 mi ESE 6.9 mph - 0.01 in Rain Light Rain
11:08 AM 75.9 °F 73.9 °F 94% 30.06 in 9.0 mi SE 5.8 mph - 0.00 in   Overcast
11:32 AM 75.9 °F 73.9 °F 94% 30.05 in 6.0 mi ESE 6.9 mph - 0.01 in Rain Light Rain
11:54 AM 75.9 °F 73.9 °F 94% 30.04 in 8.0 mi ESE 9.2 mph - 0.01 in Rain Light Rain
12:30 PM 75.9 °F 73.9 °F 94% 30.04 in 2.5 mi ESE 5.8 mph - 0.05 in Rain Rain
12:34 PM 75.9 °F 73.9 °F 94% 30.04 in 1.5 mi SE 8.1 mph - 0.09 in Rain Heavy Rain
12:41 PM 75.0 °F 73.9 °F 96% 30.03 in 1.5 mi ESE 8.1 mph - 0.11 in Rain Heavy Rain
12:44 PM 75.0 °F 73.9 °F 96% 30.03 in 2.0 mi ESE 11.5 mph - 0.12 in Rain Heavy Rain
12:50 PM 75.2 °F 73.4 °F 94% 30.04 in 3.0 mi Variable 3.5 mph - 0.13 in Rain Rain
12:54 PM 75.9 °F 73.9 °F 94% 30.03 in 3.0 mi South 3.5 mph - 0.14 in Rain Rain
1:10 PM 75.9 °F 73.9 °F 94% 30.03 in 8.0 mi SE 5.8 mph - 0.01 in Rain Light Rain
1:36 PM 75.9 °F 75.0 °F 97% 30.03 in 2.5 mi SSE 3.5 mph - 0.06 in Rain Rain
1:54 PM 75.9 °F 73.9 °F 94% 30.01 in 2.5 mi SE 3.5 mph - 0.12 in Rain Rain
1:56 PM 75.9 °F 73.9 °F 94% 30.02 in 3.0 mi ESE 3.5 mph - 0.00 in Rain Rain
2:09 PM 75.9 °F 73.9 °F 94% 30.01 in 5.0 mi Calm Calm - 0.02 in Rain Light Rain
2:25 PM 75.9 °F 73.9 °F 94% 30.01 in 6.0 mi NE 3.5 mph - 0.04 in Rain Light Rain
2:36 PM 75.9 °F 73.9 °F 94% 30.00 in 6.0 mi ESE 5.8 mph - 0.04 in Rain Light Rain
2:54 PM 75.0 °F 73.0 °F 94% 30.00 in 7.0 mi Calm Calm - 0.06 in Rain Light Rain
3:21 PM 75.0 °F 73.0 °F 94% 30.00 in 10.0 mi Calm Calm - 0.00 in Rain Light Rain
3:41 PM 75.9 °F 73.9 °F 94% 29.99 in 10.0 mi Calm Calm - 0.01 in Rain Light Rain
3:48 PM 75.2 °F 73.4 °F 94% 29.99 in 10.0 mi Calm Calm - 0.01 in Rain Light Rain
3:54 PM 75.9 °F 73.9 °F 94% 29.99 in 9.0 mi Calm Calm - 0.01 in Rain Light Rain
4:04 PM 75.9 °F 73.9 °F 94% 29.99 in 2.5 mi WSW 6.9 mph - 0.01 in Rain Light Rain
4:07 PM 75.9 °F 73.9 °F 94% 29.99 in 1.5 mi SW 4.6 mph - 0.03 in Rain Heavy Rain
4:14 PM 75.9 °F 73.9 °F 94% 29.99 in 2.0 mi Calm Calm - 0.03 in Rain Light Rain
4:17 PM 75.9 °F 73.9 °F 94% 29.98 in 4.0 mi Calm Calm - 0.04 in Rain Light Rain
4:54 PM 77.0 °F 73.9 °F 90% 29.97 in 10.0 mi Calm Calm - 0.04 in   Overcast
5:01 PM 77.0 °F 73.9 °F 90% 29.98 in 9.0 mi West 3.5 mph - N/A   Overcast
5:12 PM 77.0 °F 73.9 °F 90% 29.97 in 9.0 mi NW 5.8 mph - N/A   Overcast
5:54 PM 75.0 °F 73.0 °F 94% 29.97 in 9.0 mi North 6.9 mph - 0.00 in Rain Light Rain
6:32 PM 73.9 °F 72.0 °F 93% 29.99 in 10.0 mi NNW 8.1 mph - 0.00 in   Overcast
6:54 PM 73.9 °F 72.0 °F 93% 29.99 in 10.0 mi NNW 6.9 mph - 0.00 in   Overcast
7:05 PM 73.0 °F 72.0 °F 96% 29.99 in 10.0 mi NW 8.1 mph - N/A   Overcast
7:29 PM 73.0 °F 71.1 °F 93% 29.99 in 10.0 mi NNW 5.8 mph - N/A   Overcast
7:54 PM 73.0 °F 71.1 °F 93% 29.99 in 10.0 mi NW 6.9 mph - N/A   Overcast
8:05 PM 73.0 °F 71.1 °F 93% 29.99 in 10.0 mi NW 6.9 mph - N/A   Overcast
8:40 PM 72.0 °F 70.0 °F 93% 30.01 in 10.0 mi WNW 4.6 mph - N/A   Overcast
8:54 PM 72.0 °F 70.0 °F 93% 30.01 in 10.0 mi WNW 4.6 mph - N/A   Overcast
9:44 PM 72.0 °F 70.0 °F 93% 30.03 in 10.0 mi West 3.5 mph - N/A   Overcast
9:54 PM 72.0 °F 70.0 °F 93% 30.03 in 10.0 mi West 4.6 mph - N/A   Overcast
10:33 PM 72.0 °F 70.0 °F 93% 30.04 in 3.0 mi West 4.6 mph - N/A   Overcast
10:54 PM 72.0 °F 70.0 °F 93% 30.03 in 8.0 mi West 6.9 mph - N/A   Overcast
11:54 PM 72.0 °F 70.0 °F 93% 30.04 in 10.0 mi Variable 4.6 mph - N/A   Overcast